Regional Weather Roundup
Issued by NWS

Home | Current Version | Previous Version | Graphics & Text | Print | Product List | Glossary On
Versions: 1 2 3 4 5 6 7 8 9 10 11 12 13 14 15 16 17 18 19 20 21 22 23 24 25 26 27 28 29 30 31 32 33 34 35 36 37 38 39 40 41 42 43 44 45 46 47 48 49 50
000
ASUS45 KCYS 030910
RWRWY

WYOMING REGIONAL WEATHER ROUNDUP
NATIONAL WEATHER SERVICE CHEYENNE WY
300 AM MDT THU SEP 03 2015

NOTE:  "FAIR" INDICATES FEW OR NO CLOUDS BELOW 12,000 FEET
WITH NO SIGNIFICANT WEATHER AND/OR OBSTRUCTIONS TO VISIBILITY.

WYZ001-031000-
YELLOWSTONE NATIONAL PARK

CITY           SKY/WX    TMP DP  RH WIND       PRES   REMARKS
LK YELLOWSTONE   N/A     45  35  68 MISG      30.12R
W YELLOWSTONE  NOT AVBL

$$
WYZ002>013-054>058-071-098>099-031000-
NORTHERN WYOMING

CITY           SKY/WX    TMP DP  RH WIND       PRES   REMARKS
JACKSON        MOCLDY    48  39  71 NE6       29.97F
CODY           FAIR      68  36  30 SW9       29.87R
GREYBULL       FAIR      63  34  33 SE6       29.81R
WORLAND        FAIR      66  38  35 CALM      29.83S
SHERIDAN       FAIR      67  39  35 VRB3      29.78S
BUFFALO        FAIR      77  35  21 CALM      29.87R
GILLETTE       FAIR      76  34  21 SW17      29.82S
HULETT         FAIR      77  34  20 S10G17    29.84S
NEWCASTLE      FAIR      73  32  21 SE10      29.87S

$$
WYZ014>020-022>026-101>103-031000-
CENTRAL WYOMING

CITY           SKY/WX    TMP DP  RH WIND       PRES   REMARKS
BIG PINEY      FAIR      47  31  53 E3        30.08F
PINEDALE       FAIR      45  36  70 CALM      30.09S
DUBOIS         FAIR      48  30  49 NW9       30.06S
LANDER         FAIR      72  36  26 SE3       29.93F
RIVERTON       FAIR      69  38  32 SW9       29.94F
CASPER         FAIR      59  40  49 W3        29.96S
DOUGLAS        FAIR      75  41  29 CALM      29.94F

$$
WYZ021-027>030-104>119-031000-
SOUTHERN WYOMING

CITY           SKY/WX    TMP DP  RH WIND       PRES   REMARKS
EVANSTON       FAIR      59  33  37 SW14      30.08F
KEMMERER       FAIR      57  32  38 CALM      30.10S
FORT BRIDGER   SUNNY     66  34  30 SW14      30.11S
ROCK SPRINGS   FAIR      61  38  42 SE9       30.07F
DIXON          FAIR      59  42  54 CALM      30.13F
RAWLINS        FAIR      64  37  36 SW9       30.10F
SARATOGA       FAIR      57  43  58 S9        30.14S
LARAMIE        FAIR      53  42  66 SW9       30.16S
CHEYENNE       FAIR      64  43  46 W9        30.06F
TORRINGTON     FAIR      63  47  55 CALM      29.91R
PINE BLUFFS    FAIR      57  41  54 CALM      30.01S

$$


USA.gov is the U.S. government's official web portal to all federal, state and local government web resources and services.